Regional Weather Roundup
Issued by NWS

Home | Current Version | Previous Version | Graphics & Text | Print | Product List | Glossary On
Versions: 1 2 3 4 5 6 7 8 9 10 11 12 13 14 15 16 17 18 19 20 21 22 23 24 25 26 27 28 29 30 31 32 33 34 35 36 37 38 39 40 41 42 43 44 45 46 47 48 49 50
000
ASUS43 KFSD 280910
RWRSD

WEATHER ROUNDUP FOR SOUTH DAKOTA
NATIONAL WEATHER SERVICE SIOUX FALLS SD
400 AM CDT TUE MAR 28 2017

NOTE: "FAIR" INDICATES FEW OR NO CLOUDS BELOW 12,000 FEET WITH NO
SIGNIFICANT WEATHER AND/OR OBSTRUCTIONS TO VISIBILITY.


SDZ001>005-009-010-012>017-281000-
NORTHWEST AND NORTH CENTRAL SOUTH DAKOTA

CITY           SKY/WX    TMP DP  RH WIND       PRES   REMARKS
BUFFALO          N/A     39  33  79 S6        29.91S
FAITH            N/A     42  34  73 MISG      29.96F
MOBRIDGE       CLEAR     36  29  75 CALM      30.01R
$$

SDZ012>016-024>037-041>051-057-063-072>074-281000-
SOUTHWEST AND SOUTH CENTRAL SOUTH DAKOTA

CITY           SKY/WX    TMP DP  RH WIND       PRES   REMARKS
RAPID CTY ARPT CLOUDY    40  33  76 N9        29.94S
PIERRE         PTCLDY    38  33  82 E10       29.98F
CUSTER         CLOUDY    39  33  79 NE7       29.94S
ELLSWORTH AFB  CLOUDY    43  34  69 CALM      29.94R
PHILIP         CLOUDY    40  34  79 E8        29.94F
PINE RIDGE     LGT RAIN  45  42  89 CALM      29.91S
SPEARFISH      FAIR      41  36  81 SE5       29.95R
WINNER         CLOUDY    47  39  74 E7        29.99S
$$

SDZ004>011-016>023-039-040-281000-
NORTHEAST SOUTH DAKOTA

CITY           SKY/WX    TMP DP  RH WIND       PRES   REMARKS
ABERDEEN       CLEAR     30  32 100 NE7       30.04F WCI  23
WATERTOWN      CLOUDY    38  35  89 CALM      30.05S
BROOKINGS      PTCLDY    37  35  92 CALM      30.05S
SISSETON         N/A     30  28  92 NW6       30.05S WCI  24
$$

SDZ017-020-022-023-036>040-048>070-281000-
SOUTHEAST SOUTH DAKOTA

CITY           SKY/WX    TMP DP  RH WIND       PRES   REMARKS
SIOUX FALLS    CLEAR     33  32  96 NE3       30.05F FOG
HURON          PTCLDY    38  37  97 S7        30.03F
CHAMBERLAIN    CLOUDY    46  41  84 E8        30.00F
MITCHELL       CLEAR     36  35  96 SE5       30.05R
YANKTON        CLOUDY    43  37  81 S6        30.05R
$$

ABBREVIATIONS USED IN REMARKS
   TC - TEMPERATURE IN CELSIUS
  WCI - WIND CHILL INDEX
   HX - HEAT INDEX
  VSB - VISIBILITY




USA.gov is the U.S. government's official web portal to all federal, state and local government web resources and services.